Find Kuiper-00060

NORAD ID: 64520 Int'l Des: 2025-134 Owner: KUIP Country: US Constellation: amazon-leo operational
LEOCIRCULAR

Current View

Loading 3D Globe...

About Kuiper-00060

Description loading...

Upcoming Passes

Passes for default location (London). Set your location on the main map for personalized predictions.

Altitude History

Loading altitude history...

Two-Line Element Set

1 64520U 25134W 26150.38864259 .00004489 00000-0 61738-3 0 9994
2 64520 51.9017 219.3647 0000475 90.3624 269.7392 14.79936602 52332
Epoch: May 30, 2026 • Age: 30 hours

Current Status

Altitude 643.9 km
Velocity 7.54 km/s
Sub-Earth Point -42.55°S, 43.27°W
Launch Date Jun 23, 2025
Age 0.9 years
Type internet

Technical Details

Classification Payload
Mass 490.00 kg
Dry Mass 490.00 kg
Total Mass 490.00 kg
Length 1.80 m
Diameter 0.70 m
Span 5.00 m
Shape Box + 2 pan
Manufacturer KUIP
Bus Type Kuiper
Phase Status In Orbit
Owner/State KUIP/US

Most Searched